Regional Weather Roundup
Issued by NWS

Home | Current Version | Previous Version | Text Only | Print | Product List | Glossary On
Versions: 1 2 3 4 5 6 7 8 9 10 11 12 13 14 15 16 17 18 19 20 21 22 23 24 25 26 27 28 29 30 31 32 33 34 35 36 37 38 39 40 41 42 43 44 45 46 47 48 49 50
000
ASUS43 KDMX 250103
RWRIA

WEATHER ROUNDUP FOR IOWA
NATIONAL WEATHER SERVICE DES MOINES IA
800 PM CDT TUE MAY 24 2016

NOTE: "FAIR" INDICATES FEW OR NO CLOUDS BELOW 12,000 FEET WITH NO
SIGNIFICANT WEATHER AND/OR OBSTRUCTIONS TO VISIBILITY.

* - THESE STATIONS ARE NOT NWS STATIONS...THUS NOT UNDER NWS
QUALITY CONTROL.  THEY ALSO DO NOT REPORT WEATHER SUCH
AS PRECIPITATION OR FOG.

IAZ001>003-012>014-020>022-031>034-043>046-250200-
   NORTHWEST IOWA

CITY           SKY/WX    TMP DP  RH WIND       PRES   REMARKS
CARROLL *      CLEAR     77  68  73 SE7       29.88S
CHEROKEE *     CLEAR     79  61  53 SE5       29.86S HX  80
DENISON *      CLEAR     79  61  53 SE6       29.86R HX  80
LE MARS *      CLEAR     79  64  61 SE6       29.85F HX  81
ORANGE CITY *  CLEAR     79  64  61 S3        29.86S HX  81
SHELDON *      CLEAR     79  59  50 SE6       29.85S HX  80
SIOUX CITY     CLEAR     78  63  59 SE9       29.84S HX  80
SPENCER        CLEAR     77  56  48 SE7       29.86F
STORM LAKE *   CLEAR     77  63  61 SE12      29.88S
$$

IAZ055>058-069>071-079>083-090>094-250200-
   SOUTHWEST IOWA

CITY           SKY/WX    TMP DP  RH WIND       PRES   REMARKS
ATLANTIC *     CLEAR     81  59  47 SE8       29.88S HX  81
AUDUBON *        N/A     79  63  57 S6        29.90R HX  80
CLARINDA *       N/A     77  64  65 MISG      29.90F
COUNCIL BLFS * CLEAR     77  59  53 S6        29.87S
CRESTON *      CLEAR     77  61  57 S9        29.92S
HARLAN  *        N/A    N/A N/A N/A MISG        N/A
LAMONI         CLEAR     75  61  61 SE6       29.91F
RED OAK *      CLEAR     79  63  57 SE9       29.88S HX  80
SHENANDOAH *   PTCLDY    79  66  65 SE10G16   29.88S HX  81
$$

IAZ047>049-059>061-072>074-084-250200-
   CENTRAL IOWA

CITY           SKY/WX    TMP DP  RH WIND       PRES   REMARKS
AMES           CLEAR     79  63  57 CALM      29.89S HX  80
ANKENY *       CLEAR     79  61  53 S6        29.89R HX  80
BOONE *        CLEAR     79  64  61 CALM      29.89S HX  81
CHARITON *     CLEAR     77  64  65 S10       29.91F
DES MOINES     PTCLDY    80  59  48 S5        29.89S HX  81
GRINNELL*      CLEAR     81  57  44 SW6       29.91S HX  81
KNOXVILLE *    CLEAR     79  63  57 S9        29.89S HX  80
MARSHALLTOWN   CLEAR     80  62  54 CALM      29.89R HX  81
NEWTON *       CLEAR     81  59  47 SW6       29.90R HX  81
PERRY *          N/A     79  66  65 SE6       29.89R HX  81
$$

IAZ004>006-015-016-023>025-035-036-250200-
   NORTH CENTRAL IOWA

CITY           SKY/WX    TMP DP  RH WIND       PRES   REMARKS
ALGONA *       CLEAR     79  59  50 SE8       29.89S HX  80
CLARION *      CLEAR     79  64  61 CALM      29.90S HX  81
ESTHERVILLE    CLEAR     78  54  43 SE6       29.87S
FORT DODGE *   CLEAR     75  61  60 SE3       29.90S
MASON CITY     CLEAR     77  63  61 CALM      29.91S
FOREST CITY *    N/A     72  61  68 SE5       29.90S
WEBSTER CITY * PTCLDY    79  66  65 S7        29.88S HX  81
IOWA FALLS *     N/A     81  59  47 SE5       29.91R HX  81
$$

IAZ007>011-017>019-026>030-037>042-050>054-066-250200-
   NORTHEAST IOWA

CITY           SKY/WX    TMP DP  RH WIND       PRES   REMARKS
CEDAR RAPIDS   CLOUDY    79  66  64 S8        29.89S HX  81
CHARLES CITY * CLEAR     81  57  44 NE5       29.91R HX  81
CLINTON *      PTCLDY    79  60  52 SW8       29.91S HX  80
DECORAH *      CLEAR     81  57  44 E5        29.90S HX  81
DUBUQUE        CLEAR     78  63  59 E5        29.93R HX  80
MONTICELLO *   CLOUDY    82  61  47 VRB3      29.90S HX  83
OELWEIN *      CLEAR     81  59  47 SE3       29.91S HX  81
WATERLOO       CLEAR     79  59  50 SE6       29.89R HX  80
$$

IAZ064-065-067-068-078-250200-
   EAST CENTRAL IOWA

CITY           SKY/WX    TMP DP  RH WIND       PRES   REMARKS
DAVENPORT      MOCLDY    81  57  43 SW6       29.91S HX  81
IOWA CITY      PTCLDY    81  65  58 S12       29.91S HX  83
MT. PLEASANT * PTCLDY    81  66  61 S9        29.93R HX  83
MUSCATINE *    MOCLDY    81  64  57 SW3       29.91R HX  82
QUAD CITIES    PTCLDY    81  59  47 SW3       29.90S HX  81
$$

IAZ062-063-075>077-085>089-095>099-250200-
   SOUTHEAST IOWA

CITY           SKY/WX    TMP DP  RH WIND       PRES   REMARKS
BURLINGTON     CLOUDY    76  64  66 SW9       29.93R
FAIRFIELD *      N/A    N/A N/A N/A MISG        N/A
FORT MADISON * MOCLDY    75  64  69 S5        29.95R
KEOKUK *       MOCLDY    75  64  69 CALM      29.93S
OSKALOOSA *      N/A     78  65  63 S13       29.91F HX  80
OTTUMWA        CLEAR     77  66  68 S8        29.91S
WASHINGTON *   CLEAR     81  66  61 SW10      29.93R HX  83
$$

ABBREVIATIONS USED IN REMARKS
   TC - TEMPERATURES IN CELSIUS
  WCI - WIND CHILL INDEX
   HX - HEAT INDEX
  VSB - VISIBILITY
$$





USA.gov is the U.S. government's official web portal to all federal, state and local government web resources and services.